Date,TemperatureHighF,TemperatureAvgF,TemperatureLowF,DewpointHighF,DewpointAvgF,DewpointLowF,HumidityHigh,HumidityAvg,HumidityLow,PressureMaxIn,PressureMinIn,WindSpeedMaxMPH,WindSpeedAvgMPH,GustSpeedMaxMPH,PrecipitationSumIn
2013-2-1,31.8,26.7,19.9,19.9,11.9,6.6,69,53,38,30.18,29.69,17,2,20,0.00
2013-2-2,32.2,23.8,14.4,18.3,11.1,7.3,84,60,36,30.29,30.09,12,1,12,0.00
2013-2-3,32.2,24.3,17.6,20.1,16.9,14.2,91,74,53,30.09,29.79,7,0,7,0.01
2013-2-4,31.1,24.8,20.1,17.2,12.6,7.9,83,61,43,29.99,29.80,15,1,15,0.00
2013-2-5,28.9,25.2,22.1,23.4,17.7,10.4,90,73,57,30.04,29.95,5,0,5,0.00
2013-2-6,40.6,30.4,23.7,27.7,19.6,2.8,93,67,36,30.38,29.94,11,1,14,0.03
2013-2-7,33.4,25.4,18.7,15.8,8.9,5.5,68,50,35,30.55,30.37,8,0,8,0.00
2013-2-8,30.0,26.8,20.8,28.2,21.7,11.5,93,82,52,30.45,29.66,21,4,22,0.00
2013-2-9,27.1,22.5,17.2,22.1,16.5,6.1,93,79,55,30.32,29.73,24,4,24,0.01
2013-2-10,41.4,23.3,9.5,20.5,10.2,1.6,85,59,29,30.48,30.31,8,1,9,0.10
2013-2-11,39.0,30.4,17.8,37.8,28.1,12.9,96,91,80,30.38,29.67,4,0,5,0.21
2013-2-12,48.0,38.8,34.0,36.9,30.7,26.1,96,74,50,29.95,29.70,19,1,19,0.00
2013-2-13,46.2,36.9,27.1,29.3,25.2,21.6,89,63,43,29.94,29.73,10,1,11,0.00
2013-2-14,47.5,34.8,26.2,29.5,26.0,23.5,93,73,42,30.02,29.75,8,0,8,0.02
2013-2-15,53.2,38.7,27.0,36.3,31.6,23.7,94,78,48,30.02,29.93,9,1,10,0.00
2013-2-16,40.6,33.7,28.9,31.8,25.2,18.7,93,73,45,30.00,29.75,13,1,13,0.05
2013-2-17,29.8,23.4,15.6,21.6,7.2,2.5,73,50,39,29.89,29.58,21,4,32,0.00
2013-2-18,34.3,22.8,13.6,11.3,6.0,2.3,65,50,30,30.22,29.89,17,2,19,0.00
2013-2-19,45.5,34.1,20.1,38.5,27.0,10.2,95,76,50,30.22,29.63,13,0,13,0.17
2013-2-20,37.9,30.6,23.7,35.2,18.4,9.9,90,61,46,29.91,29.64,21,2,21,0.00
2013-2-21,32.2,25.2,21.6,17.2,14.2,11.5,71,63,51,30.32,29.89,20,2,20,0.00
2013-2-22,39.6,30.1,20.1,27.1,21.0,14.0,82,69,52,30.44,30.31,11,1,12,0.00
2013-2-23,37.2,33.9,31.8,35.6,31.0,26.8,94,89,80,30.33,29.89,10,0,10,0.14
2013-2-24,40.5,35.9,33.3,36.7,32.7,27.3,94,88,73,29.95,29.74,15,2,15,0.04
2013-2-25,45.5,36.0,30.6,30.4,27.8,25.0,87,73,53,30.28,29.95,14,1,14,0.00
2013-2-26,42.8,35.3,28.6,30.7,28.0,25.5,89,75,56,30.35,30.10,10,0,12,0.02
2013-2-27,42.4,38.0,33.4,40.8,36.3,30.4,95,93,86,30.10,29.60,16,2,16,1.34
2013-2-28,48.0,38.2,34.2,41.0,35.6,32.9,96,91,73,29.65,29.56,5,0,5,0.01